Theta_e
317 312 313 315 314 313 315 315 315 315 313 313 314 315 316 315 314 313 312 313 313 314 313 314 315 315 314 316 316 313 316 318 315 316 315 313 313 308 304 304 304 303 303 303 301
319 316 314 316 316 315 316 317 317 316 315 313 315 315 317 316 318 314 313 312 313 313 313 312 312 312 313 316 315 314 315 317 314 314 314 313 312 309 306 304 303 302 301 299 300
319 319 316 317 317 317 318 319 319 317 316 314 316 314 315 313 316 315 314 311 312 313 313 313 312 314 315 316 315 314 313 315 315 313 313 313 311 309 305 307 303 301 299 298 298
316 319 318 317 318 318 319 320 320 320 319 314 316 314 314 316 318 315 313 311 312 314 314 314 312 313 314 315 315 315 314 315 313 313 312 312 309 307 306 305 301 299 298 297 296
313 316 318 317 318 319 319 320 320 320 319 315 316 314 316 315 314 314 312 312 312 313 312 312 311 312 314 314 313 315 314 314 313 312 311 309 310 306 302 300 298 298 297 296 295
312 314 316 317 317 318 319 319 319 318 319 315 316 315 318 318 314 311 311 313 311 313 312 311 312 312 313 315 314 314 314 312 312 313 311 309 307 307 302 299 298 298 297 296 296
311 312 314 316 316 317 318 318 317 317 318 314 316 317 319 317 314 310 311 312 310 311 312 310 311 312 313 314 313 312 313 312 312 311 312 307 308 308 302 299 298 297 296 296 296
310 311 312 315 316 317 318 318 315 317 318 314 316 318 317 314 313 311 310 312 311 310 311 310 311 311 312 312 313 313 312 313 313 311 311 308 310 306 300 300 298 295 294 295 294
309 309 311 314 315 316 318 317 316 317 316 314 318 317 318 313 315 314 311 310 310 311 310 310 311 312 311 313 311 309 313 312 309 310 311 308 308 305 299 299 297 293 293 292 291
310 309 310 313 315 315 317 317 316 317 316 316 316 316 313 315 316 314 311 310 310 311 312 312 306 308 308 311 316 312 309 307 308 310 310 310 309 303 302 297 296 293 292 291 291
311 310 310 312 316 314 315 316 312 311 312 314 312 315 315 316 315 312 310 310 311 312 315 312 312 315 313 308 309 309 309 308 308 310 309 308 310 304 303 297 294 292 291 290 290
314 311 310 312 317 314 311 307 311 311 309 309 310 313 314 314 312 311 309 311 312 315 313 311 314 313 311 310 309 309 310 309 308 308 308 307 307 306 303 300 298 294 290 290 291
315 315 313 313 317 310 308 308 308 310 309 310 313 315 316 311 312 311 308 310 313 313 313 314 314 308 308 308 308 308 310 308 308 307 304 304 304 306 302 300 294 293 292 290 290
315 316 316 316 311 309 312 307 310 310 306 309 312 314 310 309 311 308 307 309 312 314 312 309 308 308 307 308 307 308 307 307 307 305 306 302 306 304 298 298 295 294 291 289 289
315 315 316 318 308 308 310 307 308 309 305 308 315 311 310 310 310 311 307 308 314 312 312 314 305 307 307 307 307 307 305 305 305 304 303 303 302 303 298 298 296 294 291 289 289
314 315 314 316 306 308 305 306 309 309 310 313 314 312 311 310 311 310 309 306 307 307 306 309 306 305 306 307 307 306 306 304 302 301 303 303 302 300 297 299 298 295 290 289 288
314 313 313 315 308 308 306 308 305 308 308 314 316 314 313 313 311 311 311 309 315 316 313 309 307 305 307 307 307 307 303 308 307 304 309 299 300 307 301 298 297 296 291 288 288
313 313 313 314 311 306 310 308 309 306 310 313 313 312 314 312 314 311 310 312 309 310 308 312 313 306 305 306 308 307 304 309 309 309 314 300 305 305 295 292 295 294 290 288 287
313 313 313 313 315 308 301 309 312 309 309 314 313 314 313 314 316 309 308 309 310 307 313 309 309 302 301 302 303 304 302 302 302 286 295 301 299 299 292 291 290 289 289 288 287
314 312 312 313 313 307 301 312 311 309 312 313 313 314 315 315 313 309 308 307 310 306 308 310 311 302 299 300 299 301 300 303 301 307 305 304 303 307 293 291 289 289 288 287 287
313 311 310 311 309 306 312 309 310 310 311 313 314 313 313 314 311 308 311 310 307 304 303 302 308 304 298 299 303 297 299 298 299 308 309 309 314 298 296 294 290 290 289 287 287
311 312 308 307 311 305 313 309 308 309 309 311 312 311 313 312 310 311 312 312 304 301 305 302 303 305 301 298 296 300 302 302 303 305 302 306 310 298 296 294 292 290 289 287 287
311 308 307 307 313 312 309 311 310 309 310 311 311 311 310 311 312 312 311 309 302 304 303 300 302 304 308 300 294 295 295 300 298 301 306 308 311 292 292 291 290 289 288 287 286
310 311 309 307 309 310 311 313 313 310 310 309 310 309 311 311 311 311 311 304 301 303 306 304 303 308 314 311 300 297 293 295 300 304 306 306 306 305 296 290 288 287 287 286 286
311 310 308 311 309 312 311 310 311 313 310 309 310 310 311 311 311 312 310 302 299 300 300 302 307 303 308 309 303 306 308 298 298 302 305 308 308 306 305 299 289 289 287 286 286
315 313 306 305 308 310 311 312 312 309 310 312 311 309 310 311 310 309 311 305 308 297 296 296 305 303 305 304 302 304 305 305 304 304 303 303 304 304 303 291 289 287 287 287 287
315 311 312 313 308 310 311 311 311 310 310 310 311 311 310 311 310 310 306 306 308 304 297 297 300 302 311 305 303 306 305 304 305 304 304 303 303 303 300 290 288 287 288 288 286
Wind_Speed
19 20 22 23 24 24 24 24 26 25 21 17 9 7 10 10 11 12 8 7 8 9 8 10 6 8 2 3 3 3 4 1 2 3 2 2 3 4 4 7 5 4 4 9 14
17 19 21 22 23 23 24 24 24 26 22 17 9 6 6 4 5 10 8 9 7 8 5 9 6 8 3 1 2 4 3 2 1 3 3 1 3 8 5 4 5 6 9 17 20
15 17 19 21 23 23 23 23 23 25 22 17 11 2 6 1 2 3 10 10 6 6 5 6 5 1 3 3 2 2 3 2 1 3 3 4 1 2 13 2 6 10 8 8 17
14 16 17 19 21 22 22 22 23 24 23 16 10 4 6 2 1 1 7 8 6 6 5 4 5 4 3 3 2 3 2 2 6 3 4 5 4 4 1 3 10 11 14 9 10
12 15 17 18 19 20 21 22 22 24 22 14 8 4 3 3 4 1 4 5 5 2 7 4 5 2 2 3 5 1 4 3 1 5 6 7 1 7 4 7 10 13 9 8 9
11 13 15 18 19 19 20 20 22 24 20 12 5 4 2 2 4 0 3 1 6 5 5 5 3 2 1 2 0 2 3 7 6 2 5 7 3 2 8 7 9 9 9 8 10
13 13 15 17 19 20 20 20 21 25 16 9 4 3 2 3 4 1 1 2 4 3 1 2 3 2 1 3 3 3 5 6 4 5 5 9 1 8 9 10 11 10 9 8 9
13 15 15 16 18 20 20 20 21 22 14 5 2 2 3 4 5 1 2 2 1 2 1 2 2 3 2 2 3 2 2 3 3 3 1 6 9 5 10 13 10 9 7 8 7
14 15 16 17 18 20 21 21 22 15 5 5 2 2 3 5 4 5 1 1 3 1 1 1 2 3 4 3 4 5 3 5 7 8 2 6 6 5 8 11 10 9 8 7 6
12 14 15 16 18 20 21 21 14 6 1 1 2 2 2 3 2 3 3 2 1 1 1 2 5 3 4 3 3 5 5 6 7 3 5 7 14 8 14 9 13 9 8 8 7
13 13 14 15 16 19 20 10 7 4 5 3 2 3 1 2 4 3 2 1 1 3 2 3 3 6 8 6 4 3 5 7 5 6 5 10 16 13 16 9 10 10 9 9 9
15 14 13 13 14 14 10 5 3 1 8 2 3 3 4 1 2 4 1 5 4 3 0 6 4 5 2 3 4 5 6 8 9 5 3 9 11 9 16 21 21 17 11 10 6
15 17 13 12 13 5 3 3 1 1 1 5 3 2 2 5 4 5 2 3 4 4 5 5 4 5 3 3 5 4 5 6 8 4 5 8 7 17 3 10 7 9 10 8 10
15 15 12 11 5 3 0 1 3 2 4 5 4 3 3 3 3 0 1 2 2 7 4 5 1 4 5 5 7 6 2 5 4 4 3 4 9 4 6 14 12 13 10 9 9
14 12 10 8 8 2 1 3 3 2 3 4 4 4 3 5 5 2 1 3 5 6 4 7 6 5 6 6 7 8 0 4 3 5 3 6 5 5 3 8 13 16 13 9 9
14 10 9 7 6 4 3 3 2 4 7 3 5 5 4 4 3 3 2 3 2 3 1 6 0 5 6 2 1 1 3 4 3 2 2 6 9 5 6 9 8 15 11 11 9
13 11 9 8 3 4 5 2 3 5 3 5 6 6 4 6 4 6 6 5 6 1 4 2 4 1 2 2 3 3 5 4 5 2 7 5 3 16 8 7 11 22 16 11 9
15 13 12 13 4 5 3 4 7 7 7 2 4 3 7 7 4 5 4 4 5 3 3 4 7 8 4 5 6 5 6 5 6 4 15 2 8 6 5 7 7 11 14 10 9
15 14 15 18 13 9 3 6 10 9 7 9 3 4 5 4 3 5 8 7 8 10 8 7 7 2 0 1 4 4 5 1 1 2 3 5 7 6 4 3 6 11 11 10 9
15 7 12 11 15 9 2 18 8 8 5 4 12 10 9 7 7 7 8 6 5 11 3 4 6 2 2 1 0 4 4 2 1 3 6 6 9 12 8 11 8 11 13 10 8
11 3 8 22 17 2 10 9 9 8 5 7 9 7 8 8 9 7 8 4 7 6 6 6 5 2 4 8 10 1 3 3 2 5 4 4 16 6 15 18 19 17 15 12 10
6 4 12 29 5 4 15 8 6 7 10 7 5 9 12 10 8 8 13 12 11 10 11 8 5 6 13 1 2 3 10 12 5 6 6 3 16 3 9 11 18 17 14 9 7
3 3 14 11 8 12 5 7 11 7 11 10 11 9 6 8 5 11 15 6 13 12 12 9 4 2 6 1 2 6 6 11 1 1 21 8 14 1 1 7 11 15 12 9 9
4 4 4 6 9 9 13 14 13 10 21 7 8 6 5 10 14 7 5 5 5 7 8 13 7 9 17 13 5 6 9 10 17 13 20 27 37 28 12 8 6 7 8 9 8
6 7 8 7 16 21 13 8 23 15 8 19 15 21 12 12 15 16 8 1 1 5 5 9 13 9 22 19 5 15 24 13 22 28 20 39 32 30 26 13 16 18 10 9 8
9 7 3 3 4 24 27 33 27 13 12 20 23 15 25 24 22 16 23 8 10 2 8 4 8 5 15 10 9 21 28 23 26 30 27 36 39 40 26 3 9 14 14 11 8
18 8 10 16 12 14 29 33 28 21 18 21 21 20 22 28 29 29 7 6 9 14 13 9 6 4 20 3 3 14 26 27 22 26 22 23 38 32 19 8 11 14 16 13 10
Wind_Direction
19 18 18 18 17 17 20 24 22 19 21 21 38 104 105 84 52 64 40 350 348 358 348 350 31 355 333 22 39 104 59 15 328 139 157 346 105 33 4 84 50 23 88 117 92
18 14 12 13 13 12 12 15 18 15 15 16 23 149 128 60 15 48 13 11 6 5 8 12 349 354 7 348 24 83 102 217 346 130 150 30 121 145 93 68 64 85 84 93 84
12 11 8 7 8 7 7 7 8 9 7 9 17 140 198 339 39 330 2 11 11 351 350 330 313 313 34 10 357 148 165 191 85 139 169 148 75 68 129 185 196 160 142 112 95
2 3 3 3 2 3 2 359 357 1 360 1 13 112 138 149 141 299 351 10 12 358 11 22 11 27 42 337 340 348 294 194 175 200 147 156 133 64 1 147 136 149 150 135 108
354 354 355 356 356 357 355 353 350 351 351 352 6 169 155 47 219 245 332 4 7 357 40 47 49 360 5 326 341 171 316 338 122 171 125 110 144 147 128 138 130 138 134 128 126
342 346 347 349 350 350 349 347 342 343 342 343 350 187 170 229 165 330 317 272 15 32 35 42 112 134 273 298 331 313 296 287 289 179 161 123 176 76 218 172 145 140 147 149 139
330 338 342 343 343 343 341 339 337 334 331 331 324 220 136 225 182 32 50 141 44 37 107 99 117 129 160 318 325 325 328 323 243 191 202 113 328 230 162 171 168 169 167 159 154
324 330 335 338 338 337 335 332 330 323 318 310 277 190 223 175 189 269 36 146 356 15 56 105 87 109 138 279 21 12 56 349 279 167 193 132 257 235 175 168 181 176 173 167 177
320 324 330 333 334 333 330 326 318 316 297 289 180 165 256 178 215 229 274 239 306 137 75 68 75 94 36 69 4 5 241 230 310 205 136 186 265 225 183 183 186 193 185 177 165
313 315 321 327 329 331 328 325 308 310 291 242 160 39 153 220 188 221 217 261 53 69 40 51 51 54 28 73 256 247 280 271 239 261 196 246 261 193 198 197 198 194 193 184 174
305 307 313 320 326 331 334 338 11 343 30 224 221 258 128 279 256 216 185 152 66 35 20 342 62 241 251 212 196 206 234 230 251 252 223 233 245 208 200 206 207 202 197 187 191
304 305 306 311 320 328 329 70 96 244 302 310 237 261 244 218 289 213 226 165 157 200 338 4 254 227 187 224 236 230 260 264 285 241 207 270 248 233 190 212 208 193 194 189 194
293 303 307 308 316 315 41 121 171 349 287 298 224 203 194 161 223 206 194 159 161 161 201 169 257 111 169 232 256 231 212 252 241 341 292 286 249 242 226 228 191 192 194 186 184
283 297 316 312 299 329 226 77 161 141 47 262 243 238 139 155 263 76 30 161 189 194 190 230 244 187 224 232 173 276 230 258 283 360 261 351 293 241 196 226 203 189 197 186 190
274 288 312 326 299 273 174 142 143 110 353 251 193 151 146 168 135 218 30 60 195 188 132 252 175 190 218 225 164 237 67 264 263 258 349 229 254 243 145 247 211 197 193 189 195
271 275 300 297 277 246 202 144 114 54 250 237 149 183 158 183 196 112 162 51 59 153 274 247 337 187 209 134 147 30 332 299 46 101 254 233 197 222 193 218 193 203 187 187 185
251 256 268 279 267 223 174 119 34 179 277 218 205 178 187 184 203 178 177 180 191 269 266 337 222 66 155 127 24 80 55 313 334 344 238 176 236 258 236 226 195 195 182 183 180
243 238 243 246 262 230 159 58 206 221 226 71 146 112 183 160 223 169 150 231 231 114 112 208 301 176 180 197 185 176 176 169 261 248 293 351 245 252 291 305 229 174 164 171 175
237 235 247 238 240 211 94 216 196 190 202 160 81 168 226 219 200 154 200 202 210 170 187 179 265 115 237 167 160 177 190 151 183 123 7 239 277 281 87 52 110 149 163 182 185
213 235 238 217 204 156 139 229 216 200 149 149 185 179 191 203 176 181 187 203 211 188 156 210 288 216 169 160 21 166 154 68 10 284 273 262 270 246 198 206 187 184 193 196 196
195 231 204 195 158 170 220 226 224 244 188 173 203 205 200 183 195 195 215 233 200 165 148 144 176 185 121 208 182 154 216 200 193 164 225 293 283 209 193 203 192 201 195 191 195
201 234 182 158 173 224 228 193 218 212 217 255 205 204 192 183 203 209 213 203 166 154 168 198 168 202 211 233 290 235 206 186 184 224 236 193 260 170 207 197 195 203 193 189 188
209 192 180 194 213 214 236 235 236 189 201 218 229 195 192 197 246 210 241 202 158 159 171 178 213 316 312 7 342 223 210 218 10 324 247 238 267 77 184 155 199 187 185 190 185
154 214 181 212 234 224 215 231 224 210 231 200 207 174 162 224 219 256 220 219 201 206 157 147 187 182 240 238 136 218 199 203 213 238 256 242 263 261 251 203 203 199 189 188 188
183 218 189 202 222 224 223 238 224 223 211 207 239 223 202 233 225 232 220 213 307 205 175 172 236 193 246 259 190 261 259 204 218 238 238 261 260 265 266 235 205 201 181 181 183
197 198 194 193 172 207 220 233 231 221 185 214 225 204 219 230 215 229 224 182 205 165 172 191 247 155 259 243 224 258 262 251 245 250 249 254 267 266 277 155 171 180 180 179 188
222 231 202 217 200 193 223 235 236 223 236 228 224 229 230 227 228 236 215 192 203 184 184 168 185 142 256 129 9 273 251 238 247 243 234 245 246 263 262 199 179 177 179 180 184